Location: Fernhill
(41.0167°S, 175.6333°E)
Time: 07:15:19
(UTC+00:00)

Cosmos 2333 Rocket - Pass Details

Date: 08 November 2025
Orbit: 837 x 865 km, 70.8° (Epoch: 11 December)

Event Time Altitude Azimuth Distance (km) Brightness Sun altitude
Rises 11:29:26 0° 196° (SSW) 3,429 6.5 -31.8°
Reaches altitude 10° 11:32:15 10° 184° (S) 2,486 5.5 -31.9°
Maximum altitude 11:37:10 29° 125° (SE) 1,511 3.7 -32.0°
Enters shadow 11:37:34 29° 117° (ESE) 1,520 3.6 -32.0°
